Location: Ecklingerode
(51.5036°N, 10.3122°E)
Time: 14:34:00
(UTC+00:00)

SJ 16-02 - Pass Details

Date: 29 October 2020
Orbit: 605 x 617 km, 75.0° (Epoch: 29 November)

Event Time Altitude Azimuth Distance (km) Brightness Sun altitude
Rises 18:29:32 0° 342° (NNW) 2,898 5.1 -24.3°
Reaches altitude 10° 18:32:00 10° 353° (N) 1,990 4.1 -24.6°
Enters shadow 18:33:40 20° 8° (N) 1,455 3.2 -24.9°
